Theta_e
315 317 316 317 317 319 319 319 319 318 315 314 313 314 312 312 310 308 311 310 310 310 313 312 312 312 313 315 313 314 321 322 320 318 318 316 319 314 314 317 316 320 317 321 333
316 316 316 317 317 318 319 318 317 316 315 314 314 314 312 310 310 309 309 308 310 311 312 311 312 312 315 316 315 320 321 321 318 317 319 317 318 317 317 317 317 317 317 328 335
315 316 316 317 317 317 318 317 315 315 313 315 312 311 309 308 311 310 310 309 312 311 311 311 312 314 315 315 315 316 320 316 314 313 315 316 315 315 318 318 318 318 318 329 334
315 316 316 316 316 317 317 314 313 313 313 312 309 308 308 308 310 310 312 309 313 311 310 310 312 313 316 316 313 317 312 314 313 313 313 316 315 316 316 317 314 316 317 328 334
314 315 315 316 316 317 317 313 311 310 310 309 308 307 308 312 312 311 313 313 311 310 310 312 313 313 314 314 312 315 313 311 311 311 312 312 314 316 315 316 312 311 316 323 330
314 315 314 315 316 316 316 312 310 308 308 307 307 308 313 309 309 312 314 313 310 310 309 310 314 312 312 311 313 311 312 312 311 311 311 312 311 311 312 310 310 311 314 319 325
314 314 314 315 315 316 314 312 310 308 307 307 308 308 311 309 311 311 313 312 311 310 310 309 309 312 312 313 311 311 313 312 312 312 313 312 313 313 312 309 311 310 313 314 319
314 313 313 314 315 315 312 311 308 308 307 307 309 313 309 309 311 310 311 311 310 310 310 310 310 311 313 311 311 312 313 314 310 312 311 311 315 309 310 310 311 311 312 311 313
314 313 314 314 314 313 311 309 308 307 308 309 310 311 308 311 311 309 310 311 310 310 311 311 311 312 311 314 314 312 313 312 310 311 313 312 313 310 310 311 312 312 312 311 312
313 313 314 314 313 311 310 308 308 309 310 311 310 311 308 311 312 310 310 311 311 312 312 312 312 314 312 313 313 314 310 310 311 312 312 314 314 313 312 311 314 314 313 312 312
313 313 313 313 312 311 310 311 310 310 311 309 309 308 308 310 310 309 310 309 310 313 313 310 313 313 313 312 309 312 311 311 309 310 313 314 313 313 314 312 313 314 314 314 314
313 313 313 313 311 310 310 309 308 308 308 308 307 309 311 310 312 310 309 312 312 312 311 312 312 312 307 307 310 310 311 311 310 310 312 312 313 313 313 313 314 314 314 314 312
314 313 313 312 311 312 309 306 307 306 308 308 308 308 311 310 311 312 310 308 311 311 311 312 310 308 309 308 310 310 311 310 311 308 308 310 312 312 310 307 308 309 309 308 308
313 313 313 312 312 311 309 307 311 307 308 308 309 308 311 310 310 308 308 310 309 311 310 310 306 308 309 309 310 311 309 309 310 312 311 308 311 313 311 310 309 309 309 310 310
313 312 312 312 311 310 308 311 311 304 308 309 308 306 309 310 310 311 308 309 310 309 310 310 308 308 310 310 308 310 308 310 310 312 313 311 311 312 307 311 311 310 312 312 310
313 313 312 311 310 308 310 312 308 309 311 309 309 310 310 309 310 309 310 307 308 310 308 309 307 308 309 306 308 307 309 309 309 311 313 312 312 312 311 310 309 308 313 311 310
313 313 312 312 312 308 311 313 313 318 308 313 311 310 310 310 311 311 311 310 311 311 311 310 310 308 308 309 307 308 312 313 313 314 312 306 309 312 309 306 308 309 313 310 309
311 313 312 312 311 309 311 311 314 310 309 312 311 310 310 310 310 310 312 311 309 308 310 310 310 310 309 310 311 310 311 314 318 313 312 306 311 311 309 310 308 309 311 309 309
308 307 310 310 311 312 312 312 316 310 313 313 310 310 310 310 311 311 312 311 311 308 310 310 309 308 307 307 310 310 311 308 309 303 314 311 311 310 308 307 311 311 310 309 308
308 306 306 307 311 313 312 314 311 307 312 311 312 310 310 310 311 311 312 311 311 307 306 309 310 309 308 308 307 309 308 311 310 318 317 309 309 311 311 311 312 312 311 308 307
301 307 305 308 311 313 312 312 310 311 313 313 312 311 310 310 310 311 311 308 309 308 306 307 311 311 309 310 311 308 309 308 310 313 322 314 310 309 311 313 313 313 311 309 308
298 308 304 306 307 303 310 310 310 312 314 316 312 311 310 311 311 311 310 309 307 307 308 308 311 313 311 307 307 307 310 310 311 311 309 310 311 308 306 312 313 312 308 308 307
302 304 303 304 308 308 305 310 311 313 314 316 316 314 311 311 312 311 309 311 310 308 309 308 314 316 311 309 310 310 308 309 309 310 316 318 312 309 308 310 311 311 308 307 306
301 305 303 305 303 308 308 310 312 309 311 311 314 314 315 313 314 311 311 312 312 310 310 308 311 312 312 310 312 312 309 308 309 317 312 312 312 312 311 311 311 310 308 307 305
296 299 299 306 304 307 308 308 311 311 310 310 311 314 317 317 315 315 313 314 313 312 312 310 314 310 310 310 311 313 312 310 310 311 312 312 311 311 313 313 312 310 308 306 304
298 299 297 300 302 305 307 308 310 309 311 311 312 312 313 316 315 315 313 313 314 313 313 312 315 310 310 311 311 312 311 311 311 311 311 310 311 308 311 312 311 309 307 306 305
293 295 299 300 302 304 305 306 307 308 307 308 310 310 311 311 308 309 309 311 313 315 314 313 312 315 317 311 313 314 312 311 310 310 311 311 311 309 309 311 311 310 307 306 304
Wind_Speed
27 24 24 24 22 21 23 24 27 29 27 21 27 15 13 6 7 6 6 13 7 13 8 11 8 6 5 3 1 1 4 5 8 7 6 8 7 3 1 2 3 4 2 3 16
27 26 25 24 23 21 21 22 23 26 25 24 23 21 15 11 3 10 23 15 13 11 12 14 6 8 4 4 3 4 4 8 5 5 6 10 6 8 6 5 5 4 3 6 15
27 26 26 25 23 23 22 23 22 22 23 24 24 25 16 9 2 9 21 21 13 15 11 10 10 5 4 2 3 3 6 6 5 3 4 10 5 4 6 6 8 10 11 11 14
28 26 25 24 23 22 22 23 22 21 21 20 19 16 12 8 6 4 8 17 15 15 12 9 8 6 5 7 2 5 2 4 6 5 5 8 7 5 7 1 3 4 5 14 15
29 27 24 23 22 21 21 21 21 21 20 19 17 15 11 3 8 5 9 14 14 16 14 7 10 5 5 6 5 2 6 4 6 7 5 5 4 2 9 8 3 3 5 11 14
30 28 24 23 22 22 21 21 21 20 17 17 16 18 4 13 7 8 12 14 13 13 11 9 8 4 6 4 2 3 7 8 4 5 4 3 2 2 2 2 6 7 7 9 13
31 28 26 25 24 22 21 21 19 17 16 15 16 17 4 9 5 9 12 12 13 9 6 6 9 2 7 6 3 7 5 5 3 2 3 1 5 8 4 2 3 7 9 8 10
31 30 26 26 24 23 21 19 18 17 13 13 14 10 5 4 8 9 11 9 11 8 7 10 10 8 1 8 4 4 3 6 3 4 2 4 12 1 1 7 12 8 8 9 10
30 30 30 27 26 24 22 20 17 15 15 13 8 5 2 5 5 10 13 11 11 10 7 9 5 4 4 7 4 1 6 6 3 0 2 6 5 2 1 2 7 8 8 7 8
30 32 29 28 27 25 23 21 17 15 12 8 3 3 4 4 6 9 8 16 4 8 5 4 4 4 5 7 11 10 5 3 4 4 2 4 12 9 8 7 8 8 7 9 9
31 32 30 29 28 27 27 20 9 4 4 4 4 1 4 5 9 4 7 6 5 4 6 2 5 13 16 8 2 8 5 6 3 1 4 8 12 14 12 8 12 12 12 13 11
31 32 30 28 28 29 24 7 9 9 6 2 1 2 3 4 5 2 7 5 6 10 6 5 12 5 8 8 7 8 6 4 3 2 3 2 13 12 13 12 11 12 12 12 9
34 33 31 29 27 23 14 7 16 13 5 2 2 3 3 5 4 9 6 3 5 8 9 10 2 12 7 7 7 3 5 4 1 2 2 5 9 6 4 6 7 8 9 7 8
34 32 31 31 17 16 10 14 15 8 4 6 6 4 4 4 2 2 2 2 3 7 6 3 2 9 10 7 4 6 6 6 7 3 3 2 5 5 3 9 5 4 3 2 3
33 33 36 34 12 14 15 20 14 2 6 10 4 3 2 5 7 2 1 2 9 8 6 6 10 11 8 6 6 3 6 7 3 3 2 2 5 4 2 9 5 7 3 2 2
34 33 35 21 11 19 24 22 6 4 8 6 5 8 7 2 3 3 3 5 3 4 5 4 3 2 3 5 1 13 9 6 4 1 5 6 6 7 5 3 3 4 3 2 3
33 33 35 15 6 25 27 5 5 7 5 8 5 7 9 5 5 3 10 11 8 7 7 2 2 1 3 10 5 2 10 3 4 5 5 2 4 10 5 4 3 2 2 3 4
20 32 27 13 13 29 12 6 5 7 6 4 5 12 10 9 2 2 11 12 7 4 6 9 6 9 4 3 9 7 7 5 7 5 2 2 8 4 2 1 3 2 3 4 4
14 17 15 8 22 23 7 10 6 6 10 10 9 11 7 4 5 6 11 15 13 11 8 8 6 1 1 2 6 7 7 3 7 1 2 5 5 10 7 7 4 6 6 4 4
5 4 4 3 20 11 10 13 5 3 6 9 7 7 13 11 8 9 12 7 7 9 1 7 4 1 1 1 2 4 11 4 2 5 5 5 5 8 6 11 10 9 9 6 4
6 3 6 1 16 9 15 8 3 2 2 5 5 6 7 10 8 8 10 3 6 11 3 6 3 2 2 8 12 5 6 1 3 3 4 3 5 5 9 11 14 11 9 8 7
4 3 3 5 3 2 6 6 3 5 1 2 3 5 8 10 8 10 14 2 3 12 12 4 4 5 8 1 3 2 8 10 6 6 3 1 6 0 2 9 12 11 9 7 7
3 2 6 4 4 4 1 3 3 5 5 3 3 1 2 7 5 7 6 1 1 9 13 9 4 4 2 2 0 7 6 8 2 2 8 6 8 2 0 9 8 12 10 9 9
3 3 2 2 1 4 4 4 4 2 3 4 4 2 5 3 2 8 5 1 1 1 2 2 3 12 15 6 7 7 8 7 9 4 16 11 19 4 7 12 11 11 11 11 9
3 1 2 4 4 6 3 4 7 4 1 2 3 1 5 4 4 3 4 5 2 0 1 3 6 5 8 1 4 5 13 17 16 26 13 25 19 15 16 17 18 15 13 13 12
2 3 1 3 6 8 8 6 6 4 6 4 5 9 4 6 3 7 8 6 4 3 4 1 2 2 1 1 3 2 8 18 24 24 21 24 20 2 14 14 13 16 16 15 14
1 2 1 4 6 6 6 9 11 9 1 2 9 6 5 6 5 5 4 2 5 7 6 7 6 4 4 5 4 4 22 14 14 17 17 20 30 8 8 15 16 17 18 17 15
Wind_Direction
199 194 187 188 188 183 187 186 188 190 190 178 184 205 199 226 255 313 260 249 247 232 190 169 161 148 140 130 129 175 188 177 176 183 139 151 169 130 89 168 180 186 305 60 153
196 192 186 188 183 183 183 184 186 190 195 199 188 195 211 207 262 283 259 258 238 203 183 172 156 141 161 150 164 218 186 185 175 171 160 160 182 151 191 178 198 194 158 133 159
195 193 189 189 183 185 182 181 183 186 187 196 195 197 198 199 95 241 261 233 223 191 185 185 147 158 170 171 176 192 189 155 166 163 163 151 171 155 184 204 217 215 183 166 174
194 192 191 186 184 186 180 181 181 181 182 189 192 183 174 165 202 206 235 195 196 187 165 154 155 157 169 175 185 158 76 152 144 145 140 158 131 187 216 133 48 211 181 174 186
193 192 189 183 186 184 177 180 179 184 180 178 175 167 143 164 241 257 178 181 182 180 170 162 170 148 180 162 151 125 142 99 117 126 102 129 150 212 242 228 178 75 173 198 201
191 191 187 183 184 185 175 176 180 181 180 173 169 159 151 215 226 201 179 178 184 183 169 165 186 163 116 145 212 86 132 120 128 113 97 188 144 259 233 220 218 216 211 210 217
190 191 186 184 183 182 173 173 175 174 177 173 172 161 207 215 214 180 179 188 189 190 161 173 150 172 137 122 126 126 108 126 114 130 99 195 231 227 246 241 254 212 219 217 219
189 192 182 184 183 180 172 168 168 161 167 172 176 168 220 192 178 168 173 170 171 169 166 153 134 104 60 124 77 114 144 180 125 175 107 232 244 211 332 249 249 238 217 225 221
188 189 184 181 182 175 169 163 156 155 156 162 171 197 215 161 168 181 177 159 146 134 115 129 84 92 139 145 124 104 184 201 165 120 145 209 245 142 141 272 266 246 226 218 216
184 186 181 183 182 170 163 151 142 137 141 144 156 183 168 202 148 170 179 151 126 130 110 56 70 130 154 186 189 177 163 166 200 152 236 216 250 246 228 253 261 254 234 225 232
182 183 182 184 175 166 150 128 141 142 193 204 193 116 121 134 124 178 165 123 123 147 160 73 179 192 181 178 133 144 151 156 121 112 189 246 263 267 270 247 253 250 246 248 245
181 182 183 183 174 168 163 177 177 142 165 230 94 74 129 181 114 189 176 164 163 160 139 155 210 175 102 127 123 126 156 159 117 99 228 269 271 262 259 256 243 240 247 259 271
181 180 180 177 172 177 191 196 166 146 123 183 193 175 169 173 137 173 184 156 147 146 186 181 154 145 137 142 143 125 171 172 102 124 71 304 274 243 234 258 264 245 251 262 278
179 178 176 170 162 181 195 186 164 161 152 175 203 222 138 161 113 11 184 157 111 159 152 130 112 149 140 167 153 182 174 133 127 177 233 323 281 271 218 263 233 238 207 283 350
178 177 175 171 165 176 175 170 157 142 205 153 162 137 141 177 125 209 135 99 153 145 191 159 161 153 176 185 171 142 131 129 98 126 279 197 262 256 4 264 217 153 122 69 53
179 177 176 185 170 176 167 155 133 149 229 158 138 167 141 77 88 139 147 64 108 92 42 73 349 135 118 72 66 142 107 78 83 134 245 215 238 249 208 238 147 134 106 87 98
178 177 178 186 190 168 158 157 130 199 147 172 173 174 156 140 120 199 175 165 161 152 168 121 143 63 146 107 111 213 161 121 200 203 245 73 225 265 241 206 161 78 75 92 99
160 180 177 187 179 166 155 167 186 159 185 111 133 138 174 145 152 141 157 183 219 104 144 170 204 178 174 187 167 185 206 169 191 199 176 107 232 235 152 3 264 183 116 115 105
103 112 147 184 173 168 155 200 196 179 142 142 130 149 178 179 137 158 190 200 198 185 167 171 194 16 41 148 167 170 209 82 100 37 252 209 248 268 222 236 177 153 146 122 101
116 63 77 151 177 176 171 205 170 151 127 152 157 185 177 175 155 187 170 185 192 187 246 181 115 10 125 168 26 209 138 139 210 193 227 226 268 241 206 199 178 169 154 136 110
99 116 354 56 155 178 194 190 154 177 183 167 137 144 173 171 175 188 196 162 192 178 174 141 121 125 163 217 177 150 178 161 175 194 207 260 242 219 224 180 176 172 160 147 134
113 105 22 78 95 66 183 155 135 154 178 119 101 110 163 162 165 187 198 235 159 153 189 167 111 155 194 35 349 327 202 183 194 201 251 344 253 30 254 183 172 164 156 142 129
81 88 28 86 146 150 59 131 139 146 173 149 104 58 121 155 147 200 168 74 164 178 169 175 180 113 129 222 225 219 190 221 205 63 202 194 251 27 105 182 172 163 163 160 151
128 124 31 74 195 119 132 140 133 354 91 69 106 104 119 130 9 166 142 160 68 196 54 118 127 207 217 214 138 203 192 200 197 199 228 231 250 165 188 186 181 179 168 166 166
13 85 1 158 181 139 125 136 154 159 73 100 56 332 132 130 168 138 136 129 96 273 111 201 198 194 244 340 169 194 191 190 202 225 215 244 242 236 199 196 195 178 173 176 174
122 136 83 85 135 133 156 185 160 152 160 179 155 174 161 160 167 174 150 168 171 164 180 178 135 116 224 108 190 228 210 204 213 227 230 248 257 270 192 204 181 189 181 184 179
125 85 93 135 146 167 193 166 187 147 239 174 169 142 153 178 137 115 62 68 150 173 177 166 145 137 225 151 120 280 226 205 219 231 224 235 243 181 189 199 200 193 192 184 176